Location: Dodge City Community College Clyde Tombaugh Astronomy Center
(37.7756°N, 100.0412°W)
Time: 17:33:40
(UTC+00:00)

Cosmos 923 Rocket - Pass Details

Date: 05 July 2022
Orbit: 758 x 784 km, 74.0° (Epoch: 17 August)

Event Time Altitude Azimuth Distance (km) Brightness Sun altitude
Rises 10:44:33 0° 164° (SSE) 3,244 7.0 -7.4°
Reaches altitude 10° 10:47:19 10° 150° (SSE) 2,325 6.4 -6.9°
Maximum altitude 10:51:30 24° 98° (E) 1,570 6.3 -6.2°
Drops below altitude 10° 10:55:42 10° 46° (NE) 2,345 8.3 -5.6°
Sets 10:58:29 0° 33° (NNE) 3,279 8.7 -5.1°
